EZS91DA LSGG-LDSP

Flight info

Callsign EZS91DA
Flight time 1h 22m
Altitude 37000
Route MEDAM DCT NITAM DCT MOGBO DCT KODOK DCT TOP DCT LURUT DCT LANLI DCT TORPO
Aircraft A320/M-SDE2E3FGHIJ1RWXYZ/LB1

Departure

Time 2026-05-04 12:44
Airport Geneva International Airport (LSGG)

Arrival

Time 2026-05-04 14:07
Airport Split Saint Jerome Airport (LDSP)
Time Latitude Longitude Altitude Speed Heading
2026-05-04 12:31 46.23149 6.10748 1393 ft 0 kts 134°
2026-05-04 12:32 46.23149 6.10747 1393 ft 0 kts 134°
2026-05-04 12:37 46.23150 6.10746 1393 ft 2 kts 134°
2026-05-04 12:37 46.23161 6.10729 1401 ft 2 kts 132°
2026-05-04 12:37 46.23172 6.10712 1397 ft 2 kts 134°
2026-05-04 12:38 46.23181 6.10692 1403 ft 2 kts 79°
2026-05-04 12:38 46.23175 6.10673 1401 ft 1 kts 46°
2026-05-04 12:38 46.23174 6.10670 1400 ft 0 kts 39°
2026-05-04 12:39 46.23181 6.10680 1402 ft 5 kts 45°
2026-05-04 12:39 46.23220 6.10738 1399 ft 11 kts 45°
2026-05-04 12:39 46.23291 6.10790 1389 ft 11 kts 14°
2026-05-04 12:39 46.23357 6.10786 1383 ft 9 kts 326°
2026-05-04 12:40 46.23406 6.10718 1387 ft 9 kts 316°
2026-05-04 12:40 46.23458 6.10721 1384 ft 10 kts 38°
2026-05-04 12:40 46.23522 6.10813 1386 ft 14 kts 45°
2026-05-04 12:40 46.23586 6.10905 1383 ft 12 kts 46°
2026-05-04 12:41 46.23650 6.11002 1382 ft 16 kts 46°
2026-05-04 12:41 46.23729 6.11118 1381 ft 15 kts 45°
2026-05-04 12:41 46.23808 6.11232 1379 ft 18 kts 45°
2026-05-04 12:41 46.23901 6.11367 1378 ft 18 kts 45°
2026-05-04 12:42 46.24001 6.11513 1377 ft 23 kts 46°
2026-05-04 12:42 46.24116 6.11684 1374 ft 24 kts 45°
2026-05-04 12:42 46.24234 6.11857 1374 ft 24 kts 45°
2026-05-04 12:42 46.24300 6.11937 1373 ft 7 kts 10°
2026-05-04 12:43 46.24340 6.11883 1373 ft 9 kts 270°
2026-05-04 12:43 46.24322 6.11773 1373 ft 13 kts 256°
2026-05-04 12:43 46.24323 6.11662 1372 ft 6 kts 258°
2026-05-04 12:43 46.24308 6.11634 1372 ft 0 kts 224°
2026-05-04 12:44 46.24303 6.11626 1373 ft 13 kts 224°
2026-05-04 12:44 46.24019 6.11209 1378 ft 100 kts 225°
2026-05-04 12:44 46.23367 6.10235 1506 ft 158 kts 226°
2026-05-04 12:44 46.22590 6.09060 2410 ft 165 kts 225°
2026-05-04 12:45 46.21784 6.07878 3122 ft 170 kts 224°
2026-05-04 12:45 46.20899 6.06593 3448 ft 192 kts 223°
2026-05-04 12:45 46.19899 6.05144 3728 ft 216 kts 223°
2026-05-04 12:45 46.18779 6.03521 4145 ft 241 kts 224°
2026-05-04 12:46 46.17551 6.01738 4727 ft 256 kts 223°
2026-05-04 12:46 46.16294 5.99904 5666 ft 258 kts 223°
2026-05-04 12:46 46.15044 5.98051 6635 ft 258 kts 224°
2026-05-04 12:46 46.13732 5.96272 7524 ft 260 kts 213°
2026-05-04 12:47 46.12055 5.95302 8320 ft 265 kts 189°
2026-05-04 12:47 46.10194 5.95440 9151 ft 273 kts 167°
2026-05-04 12:47 46.08484 5.96710 9951 ft 285 kts 143°
2026-05-04 12:47 46.07269 5.99022 10730 ft 298 kts 117°
2026-05-04 12:48 46.06613 6.01878 11511 ft 303 kts 111°
2026-05-04 12:48 46.05991 6.04832 12030 ft 318 kts 110°
2026-05-04 12:48 46.05354 6.07863 12877 ft 316 kts 110°
2026-05-04 12:48 46.04561 6.10822 13808 ft 312 kts 122°
2026-05-04 12:49 46.03363 6.13407 14499 ft 309 kts 135°
2026-05-04 12:49 46.01813 6.15513 15187 ft 306 kts 148°
2026-05-04 12:49 46.00083 6.17316 15876 ft 308 kts 148°
2026-05-04 12:49 45.98345 6.19132 16557 ft 310 kts 148°
2026-05-04 12:50 45.96595 6.20971 17247 ft 313 kts 148°
2026-05-04 12:50 45.95428 6.22202 17702 ft 315 kts 148°
2026-05-04 12:50 45.93655 6.24074 18403 ft 317 kts 148°
2026-05-04 12:50 45.91875 6.25959 18993 ft 319 kts 148°
2026-05-04 12:51 45.90083 6.27857 19553 ft 322 kts 148°
2026-05-04 12:51 45.88268 6.29776 20117 ft 325 kts 148°
2026-05-04 12:51 45.86444 6.31712 20677 ft 327 kts 147°
2026-05-04 12:51 45.84610 6.33661 21206 ft 329 kts 148°
2026-05-04 12:52 45.82765 6.35622 21772 ft 332 kts 148°
2026-05-04 12:52 45.80909 6.37595 22337 ft 334 kts 147°
2026-05-04 12:52 45.79034 6.39590 22894 ft 337 kts 148°
2026-05-04 12:52 45.77167 6.41572 23439 ft 340 kts 148°
2026-05-04 12:53 45.75257 6.43597 23958 ft 342 kts 147°
2026-05-04 12:53 45.73313 6.45656 24401 ft 345 kts 147°
2026-05-04 12:53 45.71401 6.47678 24887 ft 347 kts 147°
2026-05-04 12:53 45.69451 6.49739 25341 ft 350 kts 147°
2026-05-04 12:54 45.67458 6.51843 25836 ft 353 kts 148°
2026-05-04 12:54 45.65473 6.53933 26305 ft 356 kts 147°
2026-05-04 12:54 45.63474 6.56037 26743 ft 358 kts 147°
2026-05-04 12:54 45.61468 6.58150 27160 ft 360 kts 147°
2026-05-04 12:55 45.59441 6.60282 27565 ft 363 kts 147°
2026-05-04 12:55 45.57401 6.62428 28006 ft 366 kts 147°
2026-05-04 12:55 45.55348 6.64587 28432 ft 368 kts 147°
2026-05-04 12:55 45.53278 6.66762 28827 ft 370 kts 147°
2026-05-04 12:56 45.51195 6.68947 29234 ft 373 kts 147°
2026-05-04 12:56 45.49189 6.71045 29584 ft 375 kts 147°
2026-05-04 12:56 45.47019 6.73311 29991 ft 378 kts 147°
2026-05-04 12:56 45.44890 6.75528 30347 ft 380 kts 148°
2026-05-04 12:57 45.42730 6.77734 30548 ft 385 kts 148°
2026-05-04 12:57 45.40523 6.79949 30680 ft 392 kts 148°
2026-05-04 12:57 45.38264 6.82195 30807 ft 400 kts 148°
2026-05-04 12:57 45.35962 6.84480 30934 ft 408 kts 148°
2026-05-04 12:58 45.33618 6.86813 31064 ft 414 kts 148°
2026-05-04 12:58 45.31238 6.89189 31193 ft 421 kts 148°
2026-05-04 12:58 45.28820 6.91607 31324 ft 428 kts 148°
2026-05-04 12:58 45.26405 6.94134 31451 ft 435 kts 143°
2026-05-04 12:59 45.24185 6.97104 31662 ft 441 kts 139°
2026-05-04 12:59 45.21990 7.00147 31991 ft 441 kts 140°
2026-05-04 12:59 45.19792 7.03182 32332 ft 442 kts 140°
2026-05-04 12:59 45.17584 7.06216 32679 ft 442 kts 140°
2026-05-04 13:00 45.15372 7.09246 33010 ft 442 kts 140°
2026-05-04 13:00 45.13157 7.12277 33330 ft 443 kts 141°
2026-05-04 13:01 45.11842 7.14124 33503 ft 445 kts 133°
2026-05-04 13:01 45.10033 7.17753 33660 ft 451 kts 129°
2026-05-04 13:02 45.08211 7.21359 33925 ft 451 kts 131°
2026-05-04 13:02 45.06320 7.24901 34196 ft 451 kts 133°
2026-05-04 13:02 45.04418 7.28441 34465 ft 452 kts 132°
2026-05-04 13:02 45.02511 7.32059 34728 ft 453 kts 131°
2026-05-04 13:03 45.00660 7.35669 34974 ft 454 kts 130°
2026-05-04 13:03 44.99021 7.39449 35196 ft 461 kts 121°
2026-05-04 13:03 44.97811 7.43743 35425 ft 468 kts 110°
2026-05-04 13:03 44.97070 7.48235 35636 ft 472 kts 105°
2026-05-04 13:04 44.96412 7.52783 35861 ft 473 kts 105°
2026-05-04 13:04 44.95733 7.57334 36085 ft 473 kts 105°
2026-05-04 13:04 44.95041 7.61875 36296 ft 473 kts 106°
2026-05-04 13:04 44.94343 7.66427 36505 ft 474 kts 105°
2026-05-04 13:05 44.93739 7.71003 36716 ft 476 kts 102°
2026-05-04 13:05 44.93267 7.75622 36933 ft 476 kts 100°
2026-05-04 13:05 44.92886 7.80269 37094 ft 477 kts 98°
2026-05-04 13:06 44.92182 7.89523 37118 ft 472 kts 99°
2026-05-04 13:06 44.91228 7.98668 37110 ft 470 kts 102°
2026-05-04 13:07 44.90107 8.07739 37103 ft 469 kts 103°
2026-05-04 13:07 44.88977 8.16792 37101 ft 469 kts 102°
2026-05-04 13:08 44.87907 8.25871 37106 ft 469 kts 102°
2026-05-04 13:08 44.86860 8.34935 37104 ft 469 kts 102°
2026-05-04 13:09 44.85790 8.43993 37106 ft 468 kts 102°
2026-05-04 13:09 44.84701 8.53040 37111 ft 468 kts 102°
2026-05-04 13:10 44.83604 8.62081 37115 ft 468 kts 102°
2026-05-04 13:10 44.82499 8.71106 37119 ft 468 kts 102°
2026-05-04 13:11 44.81393 8.80124 37120 ft 467 kts 102°
2026-05-04 13:11 44.80289 8.89146 37119 ft 467 kts 102°
2026-05-04 13:12 44.79177 8.98161 37114 ft 467 kts 102°
2026-05-04 13:12 44.78053 9.07163 37113 ft 467 kts 102°
2026-05-04 13:13 44.76916 9.16163 37114 ft 467 kts 102°
2026-05-04 13:13 44.75771 9.25153 37109 ft 467 kts 102°
2026-05-04 13:14 44.74620 9.34155 37111 ft 467 kts 102°
2026-05-04 13:14 44.73469 9.43149 37110 ft 467 kts 102°
2026-05-04 13:15 44.72308 9.52188 37113 ft 467 kts 102°
2026-05-04 13:15 44.71141 9.61161 37112 ft 467 kts 102°
2026-05-04 13:16 44.69964 9.70128 37109 ft 466 kts 102°
2026-05-04 13:16 44.68778 9.79087 37108 ft 467 kts 102°
2026-05-04 13:17 44.67589 9.88062 37114 ft 467 kts 102°
2026-05-04 13:17 44.66398 9.97017 37113 ft 467 kts 102°
2026-05-04 13:18 44.65196 10.05977 37119 ft 466 kts 102°
2026-05-04 13:18 44.63992 10.14922 37118 ft 466 kts 102°
2026-05-04 13:19 44.62778 10.23866 37116 ft 466 kts 102°
2026-05-04 13:19 44.61557 10.32794 37120 ft 466 kts 102°
2026-05-04 13:20 44.60326 10.41714 37130 ft 465 kts 102°
2026-05-04 13:20 44.59096 10.50631 37140 ft 465 kts 102°
2026-05-04 13:21 44.57858 10.59534 37154 ft 465 kts 102°
2026-05-04 13:21 44.56810 10.66980 37162 ft 464 kts 102°
2026-05-04 13:22 44.55344 10.77359 37164 ft 464 kts 102°
2026-05-04 13:22 44.54091 10.86169 37151 ft 463 kts 102°
2026-05-04 13:23 44.53141 10.92842 37140 ft 463 kts 102°
2026-05-04 13:23 44.51573 11.01566 37126 ft 460 kts 110°
2026-05-04 13:24 44.49475 11.10034 37106 ft 460 kts 110°
2026-05-04 13:24 44.47378 11.18496 37098 ft 460 kts 110°
2026-05-04 13:25 44.44233 11.31169 37091 ft 459 kts 110°
2026-05-04 13:25 44.42136 11.39593 37099 ft 459 kts 111°
2026-05-04 13:26 44.40017 11.48013 37109 ft 458 kts 111°
2026-05-04 13:26 44.37899 11.56423 37117 ft 458 kts 111°
2026-05-04 13:27 44.35782 11.64827 37120 ft 458 kts 111°
2026-05-04 13:27 44.33655 11.73245 37116 ft 458 kts 111°
2026-05-04 13:28 44.31516 11.81635 37115 ft 458 kts 111°
2026-05-04 13:28 44.29378 11.90009 37111 ft 458 kts 111°
2026-05-04 13:29 44.27233 11.98384 37116 ft 458 kts 111°
2026-05-04 13:29 44.25085 12.06744 37111 ft 458 kts 111°
2026-05-04 13:30 44.22932 12.15099 37111 ft 457 kts 111°
2026-05-04 13:30 44.20770 12.23429 37109 ft 457 kts 111°
2026-05-04 13:31 44.18606 12.31760 37105 ft 457 kts 111°
2026-05-04 13:31 44.16442 12.40084 37106 ft 457 kts 111°
2026-05-04 13:32 44.14268 12.48388 37099 ft 456 kts 111°
2026-05-04 13:32 44.12083 12.56682 37098 ft 456 kts 111°
2026-05-04 13:33 44.09895 12.64970 37105 ft 456 kts 111°
2026-05-04 13:33 44.07708 12.73249 37103 ft 456 kts 111°
2026-05-04 13:34 44.05518 12.81519 37099 ft 456 kts 111°
2026-05-04 13:34 44.03321 12.89782 37095 ft 456 kts 111°
2026-05-04 13:35 44.00006 13.02171 37083 ft 456 kts 111°
2026-05-04 13:36 43.97780 13.10429 37083 ft 456 kts 111°
2026-05-04 13:36 43.95554 13.18672 37088 ft 456 kts 112°
2026-05-04 13:37 43.93141 13.26818 37090 ft 456 kts 115°
2026-05-04 13:37 43.90557 13.34909 37092 ft 456 kts 115°
2026-05-04 13:38 43.87998 13.42950 37090 ft 456 kts 115°
2026-05-04 13:38 43.85475 13.51014 37092 ft 456 kts 114°
2026-05-04 13:39 43.82966 13.59089 37093 ft 456 kts 114°
2026-05-04 13:39 43.80449 13.67157 37090 ft 456 kts 115°
2026-05-04 13:40 43.77907 13.75209 37089 ft 457 kts 115°
2026-05-04 13:40 43.75349 13.83269 36733 ft 457 kts 115°
2026-05-04 13:40 43.74075 13.87295 36164 ft 456 kts 115°
2026-05-04 13:41 43.72806 13.91308 35648 ft 453 kts 115°
2026-05-04 13:41 43.71551 13.95273 35207 ft 448 kts 115°
2026-05-04 13:41 43.70303 13.99205 34761 ft 444 kts 115°
2026-05-04 13:42 43.67853 14.06901 33412 ft 432 kts 115°
2026-05-04 13:42 43.66644 14.10685 32725 ft 429 kts 115°
2026-05-04 13:42 43.65444 14.14442 32259 ft 426 kts 115°
2026-05-04 13:42 43.64251 14.18164 31772 ft 423 kts 115°
2026-05-04 13:43 43.63064 14.21854 31310 ft 420 kts 115°
2026-05-04 13:43 43.61885 14.25519 30852 ft 417 kts 115°
2026-05-04 13:43 43.60713 14.29164 30381 ft 414 kts 115°
2026-05-04 13:43 43.59545 14.32791 29889 ft 412 kts 115°
2026-05-04 13:44 43.58389 14.36382 29390 ft 408 kts 115°
2026-05-04 13:44 43.57239 14.39949 28891 ft 405 kts 115°
2026-05-04 13:44 43.56259 14.43573 28418 ft 402 kts 105°
2026-05-04 13:44 43.55631 14.47306 27943 ft 399 kts 102°
2026-05-04 13:45 43.55033 14.51026 27489 ft 396 kts 102°
2026-05-04 13:45 43.54440 14.54708 27039 ft 392 kts 102°
2026-05-04 13:45 43.53847 14.58366 26595 ft 389 kts 102°
2026-05-04 13:45 43.53259 14.61982 26182 ft 385 kts 102°
2026-05-04 13:46 43.52673 14.65573 25765 ft 382 kts 102°
2026-05-04 13:46 43.52082 14.69177 25345 ft 379 kts 102°
2026-05-04 13:46 43.51506 14.72696 24854 ft 373 kts 102°
2026-05-04 13:46 43.50946 14.76116 24177 ft 369 kts 102°
2026-05-04 13:47 43.50375 14.79591 23474 ft 364 kts 102°
2026-05-04 13:47 43.49819 14.82972 22720 ft 360 kts 102°
2026-05-04 13:47 43.49269 14.86304 21998 ft 355 kts 102°
2026-05-04 13:47 43.48722 14.89601 21297 ft 351 kts 103°
2026-05-04 13:48 43.48177 14.92878 20816 ft 350 kts 103°
2026-05-04 13:48 43.47636 14.96129 20439 ft 347 kts 103°
2026-05-04 13:48 43.47098 14.99351 20066 ft 344 kts 103°
2026-05-04 13:48 43.46565 15.02551 19688 ft 342 kts 103°
2026-05-04 13:49 43.46034 15.05731 19334 ft 339 kts 104°
2026-05-04 13:49 43.45505 15.08884 18986 ft 337 kts 104°
2026-05-04 13:49 43.44983 15.12012 18646 ft 334 kts 104°
2026-05-04 13:49 43.44463 15.15116 18293 ft 332 kts 104°
2026-05-04 13:50 43.43943 15.18210 17906 ft 330 kts 104°
2026-05-04 13:50 43.43426 15.21273 17535 ft 328 kts 104°
2026-05-04 13:50 43.42910 15.24323 17163 ft 326 kts 104°
2026-05-04 13:50 43.42395 15.27347 16810 ft 324 kts 104°
2026-05-04 13:51 43.41883 15.30357 16466 ft 322 kts 104°
2026-05-04 13:51 43.41377 15.33344 16128 ft 320 kts 104°
2026-05-04 13:51 43.40874 15.36315 15806 ft 318 kts 104°
2026-05-04 13:51 43.40374 15.39266 15487 ft 316 kts 104°
2026-05-04 13:52 43.39378 15.45112 14851 ft 311 kts 104°
2026-05-04 13:52 43.38886 15.47985 14320 ft 307 kts 104°
2026-05-04 13:52 43.38393 15.50836 13771 ft 307 kts 104°
2026-05-04 13:53 43.37901 15.53681 13447 ft 304 kts 104°
2026-05-04 13:53 43.37416 15.56503 13110 ft 302 kts 104°
2026-05-04 13:53 43.36934 15.59306 12764 ft 301 kts 104°
2026-05-04 13:54 43.35975 15.64871 12088 ft 297 kts 104°
2026-05-04 13:54 43.35499 15.67629 11752 ft 296 kts 104°
2026-05-04 13:54 43.34553 15.73095 11077 ft 293 kts 104°
2026-05-04 13:55 43.34080 15.75809 10736 ft 291 kts 104°
2026-05-04 13:55 43.33145 15.81195 10055 ft 288 kts 104°
2026-05-04 13:55 43.32844 15.82923 9830 ft 287 kts 104°
2026-05-04 13:56 43.32222 15.86474 9332 ft 285 kts 104°
2026-05-04 13:56 43.31756 15.89110 8957 ft 283 kts 104°
2026-05-04 13:56 43.30862 15.93409 8323 ft 281 kts 114°
2026-05-04 13:57 43.30070 15.95852 7931 ft 280 kts 114°
2026-05-04 13:57 43.29283 15.98286 7542 ft 279 kts 114°
2026-05-04 13:58 43.26941 16.05544 6379 ft 276 kts 113°
2026-05-04 13:58 43.25394 16.10334 5556 ft 273 kts 112°
2026-05-04 13:58 43.24952 16.12837 5157 ft 270 kts 90°
2026-05-04 13:59 43.25315 16.15333 4752 ft 267 kts 64°
2026-05-04 13:59 43.26404 16.17362 4322 ft 265 kts 39°
2026-05-04 13:59 43.29556 16.19936 3995 ft 265 kts 28°
2026-05-04 14:00 43.31133 16.21157 4001 ft 257 kts 29°
2026-05-04 14:00 43.34044 16.23430 3999 ft 232 kts 29°
2026-05-04 14:00 43.35454 16.24534 4001 ft 232 kts 29°
2026-05-04 14:01 43.36847 16.25624 3970 ft 225 kts 29°
2026-05-04 14:01 43.38201 16.26681 3713 ft 224 kts 29°
2026-05-04 14:01 43.40653 16.29253 3271 ft 218 kts 41°
2026-05-04 14:02 43.41766 16.30611 3150 ft 211 kts 41°
2026-05-04 14:02 43.42848 16.31924 3055 ft 204 kts 41°
2026-05-04 14:02 43.43900 16.33198 3018 ft 199 kts 41°
2026-05-04 14:02 43.44942 16.34461 3024 ft 199 kts 41°
2026-05-04 14:03 43.45945 16.35681 2963 ft 186 kts 41°
2026-05-04 14:03 43.46904 16.36848 2734 ft 183 kts 41°
2026-05-04 14:03 43.47859 16.38004 2451 ft 183 kts 39°
2026-05-04 14:03 43.48940 16.38917 2298 ft 178 kts 22°
2026-05-04 14:04 43.51184 16.39252 1973 ft 155 kts 353°
2026-05-04 14:04 43.52219 16.38973 1923 ft 150 kts 340°
2026-05-04 14:04 43.53152 16.38357 1868 ft 149 kts 324°
2026-05-04 14:05 43.54515 16.36370 1515 ft 140 kts 295°
2026-05-04 14:05 43.54959 16.35178 1209 ft 138 kts 290°
2026-05-04 14:05 43.55229 16.33913 919 ft 138 kts 279°
2026-05-04 14:06 43.55236 16.32591 576 ft 139 kts 258°
2026-05-04 14:06 43.54796 16.31426 222 ft 137 kts 234°
2026-05-04 14:06 43.54236 16.30409 66 ft 124 kts 232°
2026-05-04 14:06 43.53797 16.29620 85 ft 78 kts 232°
2026-05-04 14:07 43.53501 16.29088 90 ft 62 kts 232°
2026-05-04 14:07 43.53294 16.28720 85 ft 31 kts 231°
2026-05-04 14:07 43.53206 16.28613 87 ft 11 kts 210°
2026-05-04 14:07 43.53223 16.28589 85 ft 6 kts 47°
2026-05-04 14:08 43.53274 16.28680 88 ft 18 kts 52°
2026-05-04 14:08 43.53370 16.28851 88 ft 26 kts 52°
2026-05-04 14:08 43.53483 16.29057 86 ft 28 kts 52°
2026-05-04 14:08 43.53607 16.29279 83 ft 26 kts 52°
2026-05-04 14:09 43.53697 16.29560 72 ft 17 kts 91°
2026-05-04 14:09 43.53681 16.29669 65 ft 4 kts 142°
2026-05-04 14:10 43.53655 16.29708 62 ft 4 kts 111°
2026-05-04 14:10 43.53652 16.29719 65 ft 1 kts 115°
2026-05-04 14:10 43.53642 16.29734 63 ft 1 kts 142°